TimeEDT,TemperatureF,Dew PointF,Humidity,Sea Level PressureIn,VisibilityMPH,Wind Direction,Wind SpeedMPH,Gust SpeedMPH,PrecipitationIn,Events,Conditions,WindDirDegrees,DateUTC
12:15 AM,73.4,62.6,69,30.05,10.0,Calm,Calm,-,N/A,,Clear,0,2013-10-13 04:15:00
12:35 AM,73.4,62.6,69,30.04,10.0,Calm,Calm,-,N/A,,Scattered Clouds,0,2013-10-13 04:35:00
12:55 AM,73.4,64.4,73,30.03,10.0,Calm,Calm,-,N/A,,Scattered Clouds,0,2013-10-13 04:55:00
1:15 AM,73.4,62.6,69,30.03,10.0,Calm,Calm,-,N/A,,Scattered Clouds,0,2013-10-13 05:15:00
1:35 AM,73.4,64.4,73,30.03,10.0,Calm,Calm,-,N/A,,Scattered Clouds,0,2013-10-13 05:35:00
1:55 AM,73.4,64.4,73,30.02,10.0,Calm,Calm,-,N/A,,Clear,0,2013-10-13 05:55:00
2:15 AM,71.6,62.6,73,30.01,10.0,Calm,Calm,-,N/A,,Clear,0,2013-10-13 06:15:00
2:35 AM,71.6,62.6,73,30.01,10.0,Calm,Calm,-,N/A,,Clear,0,2013-10-13 06:35:00
2:55 AM,71.6,62.6,73,30.01,10.0,Calm,Calm,-,N/A,,Clear,0,2013-10-13 06:55:00
3:15 AM,69.8,62.6,78,30.01,10.0,Calm,Calm,-,N/A,,Clear,0,2013-10-13 07:15:00
3:35 AM,71.6,62.6,73,30.01,10.0,North,3.5,-,N/A,,Clear,360,2013-10-13 07:35:00
3:55 AM,69.8,62.6,78,30.01,10.0,Calm,Calm,-,N/A,,Mostly Cloudy,0,2013-10-13 07:55:00
4:15 AM,71.6,64.4,78,30.00,10.0,Calm,Calm,-,N/A,,Overcast,0,2013-10-13 08:15:00
4:35 AM,71.6,64.4,78,30.00,10.0,Calm,Calm,-,N/A,,Overcast,0,2013-10-13 08:35:00
4:55 AM,71.6,64.4,78,30.00,10.0,NNW,3.5,-,N/A,,Overcast,330,2013-10-13 08:55:00
5:15 AM,71.6,64.4,78,30.01,10.0,NW,3.5,-,N/A,,Scattered Clouds,320,2013-10-13 09:15:00
5:35 AM,71.6,64.4,78,30.01,10.0,Calm,Calm,-,N/A,,Scattered Clouds,0,2013-10-13 09:35:00
5:55 AM,69.8,64.4,83,30.01,10.0,NW,3.5,-,N/A,,Mostly Cloudy,320,2013-10-13 09:55:00
6:15 AM,71.6,64.4,78,30.02,10.0,Calm,Calm,-,N/A,,Scattered Clouds,0,2013-10-13 10:15:00
6:47 AM,71.6,64.4,78,30.02,7.0,Calm,Calm,-,N/A,,Scattered Clouds,0,2013-10-13 10:47:00
7:47 AM,69.8,64.4,83,30.04,7.0,Variable,4.6,-,N/A,,Scattered Clouds,0,2013-10-13 11:47:00
8:47 AM,75.2,66.2,73,30.05,7.0,Variable,5.8,-,N/A,,Scattered Clouds,0,2013-10-13 12:47:00
9:47 AM,80.6,64.4,58,30.07,7.0,NNW,8.1,-,N/A,,Scattered Clouds,330,2013-10-13 13:47:00
10:47 AM,82.4,53.6,37,30.08,7.0,North,10.4,-,N/A,,Scattered Clouds,10,2013-10-13 14:47:00
11:55 AM,84.2,53.6,35,30.08,10.0,North,9.2,-,N/A,,Scattered Clouds,10,2013-10-13 15:55:00
12:52 PM,84.2,55.4,37,30.06,10.0,NNE,12.7,17.3,N/A,,Scattered Clouds,20,2013-10-13 16:52:00
1:47 PM,84.2,55.4,37,30.05,10.0,NNE,11.5,-,N/A,,Scattered Clouds,20,2013-10-13 17:47:00
2:47 PM,84.2,50.0,30,30.03,10.0,NNE,15.0,-,N/A,,Scattered Clouds,20,2013-10-13 18:47:00
3:47 PM,84.2,51.8,33,30.02,10.0,NNE,9.2,-,N/A,,Partly Cloudy,20,2013-10-13 19:47:00
4:47 PM,82.4,53.6,37,30.01,10.0,NNE,13.8,-,N/A,,Partly Cloudy,20,2013-10-13 20:47:00
5:47 PM,82.4,53.6,37,30.00,10.0,North,10.4,-,N/A,,Partly Cloudy,10,2013-10-13 21:47:00
6:47 PM,80.6,55.4,42,30.00,7.0,North,10.4,-,N/A,,Partly Cloudy,10,2013-10-13 22:47:00
8:15 PM,77.0,53.6,44,30.02,10.0,NE,8.1,-,N/A,,Clear,50,2013-10-14 00:15:00
8:35 PM,77.0,53.6,44,30.03,10.0,NE,4.6,-,N/A,,Clear,40,2013-10-14 00:35:00
8:55 PM,77.0,55.4,47,30.03,10.0,NE,3.5,-,N/A,,Clear,40,2013-10-14 00:55:00
9:15 PM,77.0,55.4,47,30.03,10.0,NE,4.6,-,N/A,,Clear,40,2013-10-14 01:15:00
9:35 PM,77.0,57.2,50,30.04,10.0,NE,4.6,-,N/A,,Clear,40,2013-10-14 01:35:00
9:55 PM,77.0,59.0,54,30.04,10.0,NE,4.6,-,N/A,,Clear,40,2013-10-14 01:55:00
10:15 PM,78.8,59.0,51,30.04,10.0,NE,6.9,-,N/A,,Scattered Clouds,40,2013-10-14 02:15:00
10:35 PM,78.8,55.4,44,30.05,10.0,NE,9.2,-,N/A,,Mostly Cloudy,50,2013-10-14 02:35:00
10:55 PM,78.8,57.2,47,30.05,10.0,NE,6.9,-,N/A,,Mostly Cloudy,40,2013-10-14 02:55:00
11:15 PM,78.8,55.4,44,30.05,10.0,NNE,6.9,-,N/A,,Mostly Cloudy,20,2013-10-14 03:15:00
11:35 PM,78.8,55.4,44,30.05,10.0,NE,9.2,-,N/A,,Mostly Cloudy,40,2013-10-14 03:35:00
11:55 PM,78.8,55.4,44,30.04,10.0,NNE,8.1,-,N/A,,Scattered Clouds,30,2013-10-14 03:55:00